Flag for Germany Weather past 2 weeks in Fürth, Bavaria, Germany

Now
34 °F

Partly cloudy.


Feels Like: 27 °F
Forecast: 33 / 37 °F
Wind: 8 mph from Northwest

Location: Nuernberg

Current Time: Jan 25, 2015 at 10:20:05 PM

Latest Report: Jan 25, 2015 at 9:50 PM


Visibility: 6 mi

Pressure: 30.33 "Hg

Humidity: 93%

Dew point: 32 °F

Location of FürthLocation

Historic Weather in Fürth — Graph

°F

Fürth temperature yesterday

Maximum temperature yesterday: 34 °F (at 12:50 PM)
Minimum temperature yesterday: 30 °F (at 12:50 AM)
Average temperature yesterday: 32 °F

Past Weeks' High & Low Weather Summary

 TemperatureHumidityPressure
High54 °F (Jan 13, 1:50 PM)100% (Jan 15, 2:50 AM)30.36 "Hg (Jan 15, 2:50 AM)
Low27 °F (Jan 21, 5:20 AM)38% (Jan 13, 1:50 PM)29.68 "Hg (Jan 16, 6:20 PM)
Average37 °F83%29.98 "Hg
* Reported Jan 10 9:20 PM — Jan 25 9:20 PM, Fürth, Weather by CustomWeather, © 2014

Note: Actual official high and low records may vary slightly from our data, if they occured in-between our weather recording intervals... More about our weather records

Advertising

Fürth weather history for previous 24 hours

 ConditionsComfort  
Time TempWeatherWind HumidityBarometerVisibility
9:20 PM
Jan 25
34 °FPartly cloudy.8 mph93%30.33 "Hg6 mi
8:50 PM34 °FPartly cloudy.7 mph93%30.33 "Hg6 mi
8:20 PM34 °FLight snow. Partly cloudy.7 mph93%30.33 "Hg4 mi
7:50 PM34 °FLight snow. Partly cloudy.7 mph93%30.33 "Hg4 mi
7:20 PM34 °FLight snow. Partly cloudy.5 mph93%30.33 "Hg6 mi
6:50 PM34 °FLight snow. Passing clouds.7 mph93%30.33 "Hg6 mi
6:20 PM34 °FLight snow. Passing clouds.8 mph93%30.33 "HgN/A
5:50 PM34 °FPassing clouds.7 mph93%30.33 "Hg6 mi
5:20 PM34 °FLight snow. Partly cloudy.6 mph93%30.33 "Hg3 mi
4:50 PM34 °FLight snow. Mostly cloudy.5 mph93%30.33 "Hg4 mi
4:20 PM34 °FSnow. More clouds than sun.8 mph93%30.33 "Hg1 mi
3:50 PM34 °FLight snow. Partly sunny.8 mph93%30.33 "Hg4 mi
3:20 PM36 °FScattered clouds.10 mph81%30.33 "HgN/A
2:50 PM36 °FLight snow. Broken clouds.12 mph87%30.33 "HgN/A
2:20 PM36 °FBroken clouds.10 mph87%30.33 "HgN/A
1:50 PM36 °FBroken clouds.13 mph81%30.33 "HgN/A
1:20 PM36 °FScattered clouds.10 mph87%30.33 "HgN/A
12:50 PM36 °FBroken clouds.7 mph87%30.33 "HgN/A
12:20 PM36 °FPartly sunny.7 mph87%30.33 "HgN/A
11:50 AM34 °FBroken clouds.9 mph93%30.36 "HgN/A
11:20 AM34 °FBroken clouds.8 mph87%30.36 "HgN/A
10:50 AM34 °FBroken clouds.6 mph87%30.36 "HgN/A
10:20 AM32 °FBroken clouds.6 mph93%30.36 "HgN/A
9:50 AM32 °FPartly sunny.5 mph93%30.33 "HgN/A
9:20 AM32 °FPartly sunny.3 mph93%30.33 "HgN/A
8:50 AM32 °FPartly sunny.3 mph93%30.33 "HgN/A
8:20 AM32 °FPartly sunny.5 mph93%30.33 "HgN/A
7:50 AM30 °FPassing clouds.3 mph100%30.30 "HgN/A
7:20 AM30 °FPassing clouds.3 mph100%30.30 "HgN/A
6:50 AM30 °FPassing clouds.5 mph100%30.27 "HgN/A
6:20 AM30 °FPassing clouds.7 mph93%30.27 "HgN/A
5:50 AM28 °FPassing clouds.5 mph100%30.27 "HgN/A
5:20 AM30 °FPassing clouds.3 mph100%30.24 "Hg6 mi
4:20 AM32 °FPartly cloudy.6 mph93%30.24 "Hg4 mi
3:50 AM32 °FPartly cloudy.6 mph100%30.21 "Hg4 mi
3:20 AM32 °FLight snow. Passing clouds.6 mph100%30.21 "Hg3 mi
2:50 AM32 °FLight snow. Passing clouds.6 mph100%30.21 "Hg2 mi
2:20 AM32 °FLight snow. Passing clouds.7 mph93%30.18 "Hg2 mi
1:50 AM30 °FLight snow. Passing clouds.7 mph100%30.18 "Hg2 mi
1:20 AM30 °FSnow. Passing clouds.7 mph100%30.18 "Hg1 mi
12:50 AM30 °FLight snow. Passing clouds.6 mph100%30.18 "Hg2 mi
12:20 AM30 °FLight snow. Passing clouds.6 mph100%30.18 "Hg2 mi
11:50 PM
Jan 24
32 °FLight snow. Passing clouds.6 mph93%30.18 "Hg3 mi
11:20 PM32 °FLight snow. Passing clouds.7 mph87%30.18 "Hg6 mi
10:50 PM32 °FPassing clouds.7 mph87%30.15 "HgN/A
10:20 PM32 °FPassing clouds.8 mph87%30.15 "HgN/A
Weather by CustomWeather, © 2014

See weather overviewHow to use our weather pages